STARLINK-36639

Last updated on Thu Mar 05 2026 00:02:08 GMT+0000 (Coordinated Universal Time)

1 67669U 26022X 26063.04577706 .00488447 00000+0 30623-2 0 9999 2 67669 97.2837 96.7914 0002014 147.8503 212.2886 15.75413914 4668
UTC large
Height (km)
Speed (km/s)
/
Latitude / Longitude
Inclination (degrees)
Orbital Period (minutes)
Azimuth
Elevation
Range (km)
Doppler Factor

Next 0 passes for location: London (51.5072 / 0.1276)

Sorry there are no passes over London.